This is the latest recevied weather packets stored in our database for station/object IU3NMQ-10. If no packets are shown the sender has not sent any weather packets the latest 10 day(s).
| Time | Temp. | Humidity | Pressure | Rain* | Wind** | Luminosity | Snow |
|---|---|---|---|---|---|---|---|
| 1777551886 | 25.56° C | 31% | 1020.6 hPa | - | - | - | - |
| 1777550986 | 26.11° C | 32% | 1020.8 hPa | - | - | - | - |
| 1777550120 | 25.56° C | 33% | 1021 hPa | - | - | - | - |
| 1777550086 | 25.56° C | 33% | 1021 hPa | - | - | - | - |
| 1777549185 | 25° C | 32% | 1021.3 hPa | - | - | - | - |
| 1777548285 | 25.56° C | 33% | 1021.3 hPa | - | - | - | - |
| 1777547385 | 25° C | 33% | 1021.5 hPa | - | - | - | - |
| 1777546485 | 24.44° C | 34% | 1021.6 hPa | - | - | - | - |
| 1777545585 | 23.89° C | 33% | 1021.8 hPa | - | - | - | - |
| 1777544685 | 23.89° C | 35% | 1021.7 hPa | - | - | - | - |
| 1777543785 | 23.33° C | 35% | 1021.8 hPa | - | - | - | - |
| 1777542885 | 22.22° C | 35% | 1022 hPa | - | - | - | - |
| 1777541985 | 22.22° C | 35% | 1022.1 hPa | - | - | - | - |
| 1777541125 | 21.67° C | 35% | 1022.3 hPa | - | - | - | - |
| 1777541085 | 21.67° C | 35% | 1022.3 hPa | - | - | - | - |
| 1777540184 | 21.67° C | 37% | 1022.3 hPa | - | - | - | - |
| 1777539284 | 21.11° C | 36% | 1022.4 hPa | - | - | - | - |
| 1777538384 | 20.56° C | 38% | 1022.4 hPa | - | - | - | - |
| 1777537484 | 20° C | 38% | 1022.3 hPa | - | - | - | - |
| 1777536584 | 19.44° C | 38% | 1022.2 hPa | - | - | - | - |
| 1777535684 | 18.89° C | 38% | 1022.1 hPa | - | - | - | - |
| 1777534783 | 18.33° C | 39% | 1022.1 hPa | - | - | - | - |
| 1777533883 | 17.78° C | 41% | 1022.2 hPa | - | - | - | - |
| 1777533048 | 17.22° C | 41% | 1022.1 hPa | - | - | - | - |
| 1777532983 | 17.22° C | 41% | 1022.1 hPa | - | - | - | - |
* Rain since midnight (hover to see other rain measurements)
** Current wind speed in m/s (hover to see current wind gust speed)